STARLINK-36492, 67332

Orbit data source: Space-Track

STARLINK-36492, 67332 is a payload satellite owned by SpaceX/Seattle (US) in LEO that was launched on Sun, 04 Jan 2026 UTC via an FALCON 9 launch vehicle from the Air Force Eastern Test Range (AFETR). Payload-class satellites include a variety of spacecraft equipped with specific instruments for various scientific and technological missions. These include communications satellites like Starlink; space stations such as the ISS; scientific satellites like the Hubble; Earth observation satellites from companies like Planet Labs, Umbra, and HawkEye 360; GPS; miniature CubeSats for education and research; and military/defense satellites.

Loading next visibility...
Identifier
67332, 2026-002AD
Orbit
LEO
Country
Flag of USUS
Related business
Manufacturer
SpaceX/Seattle
Mission
Operational Commercial Communications
Bus & Motor
STARLINK V2MO, Unknown motor
Mass
575 kg wet, ~530 kg dry
Launch date (UTC)
2026-01-04 (5 months ago)
Launch vehicle
FALCON 9
Launch site
Air Force Eastern Test Range (AFETR)
Object type
Payload
Rocket body
Debris
Shape & HBR
Box + 2 Pan, 17.7 m
Radar Cross Section
36.964 m², Large (>1 m²)

Expand to show TLE details & history
Last TLE update: 23 hours ago

TLE from 23 hours ago
0 STARLINK-36492
1 67332U 26002AD  26170.88222948  .00026306  00000-0  96195-3 0  9990
2 67332  43.0034 108.5067 0001262 268.5593  91.5114 15.27584026 26866
Epoch: 2026-06-19T21:10Z
TLE epoch observation values (Epoch: 2026-06-19T21:10:24.627Z)
Latitude
-0.00001°
Longitude
-117.20075°
Altitude
482.836 km
Speed
7.626 km/s
True Right ascension
07h 14m 01s
True Declination
0° 00' 00"
Sunlit
Object was in daylight at epoch
Visualization orbit readout
Latitude
Unknown
Longitude
Unknown
Altitude
Unknown
Speed
Unknown
Apparent Right ascension
Unknown
Apparent Declination
Unknown
Sunlit
N/A
Visualization observer readout
Local Sidereal Time
07:20:58
Azimuth
Unknown
Elevation
Unknown
Doppler factor
Unknown
Orbital elements
Apogee altitude
485.848 km
Perigee altitude
484.116 km
Semi-major axis
6,863.119 km
Eccentricity
0.00013
Inclination
43.0034°
RAAN
108.5067°
Arg. of periapsis
268.5593°
True anomaly
91.52586°
Mean anomaly
91.5114°
Eccentric anomaly
91.51863°
Mean motion
3.81734 °/min
Orbital period
94.31 mins
BSTAR
0.00096195
Loading maneuver chart data...
Computing Atmospheric mass density...
Loading historical data...
Loading historical data...
Loading historical data...
Loading historical data...
Loading historical data...
Loading historical data...
Loading historical data...

Documentation

Showing up to 5 results
|